Regional Weather Roundup
Issued by NWS

Home | Current Version | Previous Version | Text Only | Print | Product List | Glossary Off
Versions: 1 2 3 4 5 6 7 8 9 10 11 12 13 14 15 16 17 18 19 20 21 22 23 24 25 26 27 28

000
ASUS45 KBOU 272110
RWRCO

WEATHER ROUNDUP FOR COLORADO
NATIONAL WEATHER SERVICE DENVER/BOULDER CO
300 PM MDT TUE SEP 27 2016

NOTE: "FAIR" INDICATES FEW OR NO CLOUDS BELOW 12000 FEET WITH NO
SIGNIFICANT WEATHER AND/OR OBSTRUCTIONS TO VISIBILITY.

COZ001>005-013-030-031-272200-
...NORTHWEST COLORADO...

CITY           SKY/WX    TMP DP  RH WIND       PRES   REMARKS
CRAIG          FAIR      77  30  17 W10       30.24F
HAYDEN         FAIR      73  28  19 N3        30.26F
MEEKER         FAIR      75  27  17 VRB3      30.24F
MOUNT WERNER   NOT AVBL
STEAMBOAT SPGS FAIR      73  29  20 S5        30.26F
WALDEN           N/A     70  18  13 CALM      30.34F
$$

COZ006>008-011-272200-
...WEST CENTRAL VALLEYS...

CITY           SKY/WX    TMP DP  RH WIND       PRES   REMARKS
GRAND JUNCTION FAIR      78  36  21 NW9       30.16F
MONTROSE       FAIR      76  35  22 N10       30.20F
EAGLE          SUNNY     75  27  16 CALM      30.24F
RIFLE          FAIR      77  35  21 NW6       30.17F
DELTA          FAIR      82  32  16 CALM      30.16F
NUCLA          FAIR      77  32  19 N8        30.25F
$$

COZ017>023-064>068-272200-
...SOUTHWEST COLORADO...

CITY           SKY/WX    TMP DP  RH WIND       PRES   REMARKS
DURANGO        FAIR      71  31  22 CALM      30.27F
CORTEZ         FAIR      75  35  23 S13       30.23F
PAGOSA SPRINGS FAIR      71  23  16 S6        30.33F
TELLURIDE      FAIR      67  34  29 W15       30.40F
WOLF CREEK PAS FAIR      52  32  46 SW12G24   30.61S
$$

COZ009-010-012-014-032>034-037-058>063-272200-
...CENTRAL COLORADO...

CITY           SKY/WX    TMP DP  RH WIND       PRES   REMARKS
ASPEN          FAIR      74  27  17 NW7G17    30.29F
BUENA VISTA    FAIR      75  20  13 SE10G18   30.28F
COPPER MTN     FAIR      61  18  18 CALM      30.60S
BERTHOUD PASS  FAIR      48  34  57 N7G25     30.63S
COTTONWOOD PAS FAIR      72  12  10 E8G21     30.43S
GUNNISON       FAIR      73  25  16 SW10      30.29F
KREMMLING      FAIR      77  14   9 CALM      30.28F
LEADVILLE      FAIR      66  17  15 N6        30.41F
MONARCH PASS   FAIR      55  25  30 W18       30.69S
SALIDA         FAIR      77  23  13 CALM      30.33F
SUNLIGHT       FAIR      59  30  33 NW6       30.55F
WILKERSON PASS FAIR      57  16  19 SE3       30.57S
$$

COZ069>075-272200-
...SAN LUIS VALLEY/SANGRE DE CRISTO MOUNTAINS...

CITY           SKY/WX    TMP DP  RH WIND       PRES   REMARKS
ALAMOSA        FAIR      71  28  20 VRB3      30.30F
LA VETA PASS   FAIR      63  28  27 MISG      30.48F
SAGUACHE       NOT AVBL
$$

COZ035-036-038>040-272200-
...NORTHERN COLORADO FRONT RANGE...

CITY           SKY/WX    TMP DP  RH WIND       PRES   REMARKS
DENVER INTL AP FAIR      81  25  12 N7        30.15F
DMNS CITY PARK   N/A     81  28  15 N7        30.14F
AURORA         MOSUNNY   81  25  12 N8        30.17F
FRONT RANGE AP MOSUNNY   82  25  12 N5        30.16F
ERIE MUNI ARPT FAIR      82  24  12 NE3       30.14F
BOULDER MUN AP FAIR      81  32  17 NE5       30.15F
CENTENNIAL     FAIR      79  26  14 NE6       30.18F
BROOMFIELD     MOSUNNY   81  28  15 NE5       30.18F
FORT COLLINS   FAIR      82  34  17 SE8       30.10F
LONGMONT       FAIR      82  31  15 CALM      30.15F
$$

COZ041-046-047-076>085-087-088-272200-
...PIKES PEAK/PALMER DIVIDE AND SOUTHERN FOOTHILLS...

CITY           SKY/WX    TMP DP  RH WIND       PRES   REMARKS
COLO. SPRINGS  FAIR      78  28  16 SE7       30.21F
A. F. ACADEMY  FAIR      77  29  16 SE7       30.21F
SCHRIEVER AFB  NOT AVBL
ELLICOTT       NOT AVBL
FALCON         FAIR      76  26  15 CALM      30.26F
FORT CARSON    FAIR      80  29  15 VRB6      30.17F
LIMON          FAIR      83  25  12 NW6       30.14F
MONUMENT HILL  FAIR      73  27  17 N9        30.27F
TRINIDAD       FAIR      80  27  14 S7        30.17F
$$

COZ042>045-048>051-090-091-272200-
...NORTHEAST COLORADO...

CITY           SKY/WX    TMP DP  RH WIND       PRES   REMARKS
GREELEY ARPT   FAIR      81  37  21 SE6       30.12F
AKRON          FAIR      81  30  15 NW8       30.11F
BURLINGTON     FAIR      83  32  16 VRB5      30.09F
WRAY           NOT AVBL
STERLING       FAIR      84  36  17 CALM      30.06F
HOLYOKE        FAIR      88  32  13 NW3       30.05F
FORT MORGAN    FAIR      83  26  12 S3        30.11F
$$

COZ086-089-092>099-272200-
...SOUTHEAST COLORADO...

CITY           SKY/WX    TMP DP  RH WIND       PRES   REMARKS
PUEBLO           N/A    N/A N/A N/A MISG        N/A
LA JUNTA       FAIR      86  33  15 E7        30.09F
LAMAR          FAIR      86  33  15 VRB6      30.06F
SPRINGFIELD    NOT AVBL
$$




USA.gov is the U.S. government's official web portal to all federal, state and local government web resources and services.